www.pogodaiklimat.ru

Погода и климат >> Архив погоды >> Австралия >> Западная Австралия >> База ВВС Curtin


ПОГОДА на Базе ВВС Curtin

  • Прогноз погоды на Базе ВВС Curtin
  • Монитор погоды на Базе ВВС Curtin

АРХИВ ПОГОДЫ на Базе ВВС Curtin

Время (UTC), дата Ветер
(напр.,м/с)
 
Видим.   Явления Облачность Т
(С)
Тd
(С)
f
(%)
Тe
(С)
Тes
(С)
Комфортность P
(гПа)
Po
(гПа)
Тmin
(С)
Tmax
(С)
R
(мм)
R24
(мм)
S
(см)
13 10.09 ЮВ 4 н/о н/о +24.1 -17.8 5 +21 +21 комфорт 1016.8 1007.9 +36.9
15 10.09 ЮВ 5 н/о н/о +24.4 -15.5 6 +21 +21 комфорт 1017.0 1008.1
16 10.09 ЮВ 5 н/о н/о +22.0 -15.3 7 +20 +20 1017.0 1008.1
18 10.09 ЮВ 6 н/о н/о +21.6 -14.0 8 +20 +20 1016.5 1007.6
19 10.09 В 6 н/о н/о +21.1 -14.4 8 +20 +20 1016.8 1007.9
21 10.09 В 5 н/о н/о +22.0 -13.7 8 +20 +20 1018.0 1009.1
22 10.09 В 5 н/о н/о +21.9 -13.8 8 +20 +20 1018.9 1010.0
00 11.09 В 8 н/о н/о +28.4 -12.6 6 +24 +24 комфорт 1019.7 1010.8
01 11.09 В 9 н/о н/о +30.4 -11.2 6 +26 +26 жарко 1019.7 1010.8 +20.8
03 11.09 В 8 н/о н/о +32.4 -12.0 5 +28 +28 жарко 1018.4 1009.5
04 11.09 В 9 н/о н/о +33.7 -13.9 4 +29 +29 жарко 1017.0 1008.1
06 11.09 В 8 н/о н/о +34.2 -17.0 3 +29 +29 жарко 1014.8 1005.9
07 11.09 ЮВ 8 н/о н/о +34.2 -17.0 3 +29 +29 жарко 1014.2 1005.3
09 11.09 ЮВ 7 н/о н/о +32.4 -18.2 3 +28 +28 жарко 1014.4 1005.5
10 11.09 ЮВ 4 н/о н/о +28.6 -14.7 5 +24 +24 комфорт 1015.1 1006.2
12 11.09 ЮВ 4 н/о н/о +25.9 -14.4 6 +22 +22 комфорт 1016.9 1008.0
13 11.09 ЮВ 4 н/о н/о +24.1 -15.7 6 +21 +21 комфорт 1017.3 1008.4 +35.5
15 11.09 ЮВ 4 н/о н/о +22.2 -15.2 7 +20 +20 1017.2 1008.3
16 11.09 ЮВ 4 н/о н/о +20.6 -14.8 8 +20 +20 1017.3 1008.4
18 11.09 ЮВ 4 н/о н/о +18.2 -13.9 10 +18 +18 1016.7 1007.8
19 11.09 ЮВ 5 н/о н/о +19.1 -14.5 9 +19 +19 1016.8 1007.9
21 11.09 В 5 н/о н/о +18.2 -13.9 10 +18 +18 1017.6 1008.7
22 11.09 В 4 н/о н/о +17.7 -13.1 11 +17 +17 1018.6 1009.7
00 12.09 В 6 н/о н/о +27.5 -13.2 6 +24 +24 комфорт 1019.6 1010.7
01 12.09 В 7 н/о н/о +30.4 -13.4 5 +26 +26 жарко 1019.3 1010.4 +17.6
03 12.09 В 6 н/о н/о +32.5 -14.7 4 +28 +28 жарко 1017.9 1009.0
04 12.09 В 5 н/о н/о +33.0 -17.8 3 +28 +28 жарко 1016.7 1007.8
06 12.09 В 5 н/о н/о +34.6 -16.7 3 +30 +30 жарко 1014.6 1005.7
07 12.09 В 3 н/о н/о +34.0 -17.1 3 +29 +29 жарко 1014.2 1005.3
09 12.09 В 4 н/о н/о +32.7 -18.0 3 +28 +28 жарко 1014.3 1005.4
10 12.09 ЮВ 3 н/о н/о +28.8 -17.2 4 +24 +24 комфорт 1015.0 1006.1
12 12.09 ЮВ 4 н/о н/о +25.7 -14.5 6 +22 +22 комфорт 1016.3 1007.4
13 12.09 ЮВ 5 н/о н/о +23.4 -14.3 7 +20 +20 1016.6 1007.7 +35.0
15 12.09 ЮВ 5 н/о н/о +22.7 -14.8 7 +20 +20 1016.4 1007.5
16 12.09 ЮВ 5 н/о н/о +23.0 -14.6 7 +20 +20 1016.2 1007.3
18 12.09 В 5 н/о н/о +21.8 -13.9 8 +20 +20 1015.9 1007.0
19 12.09 В 5 н/о н/о +20.8 -14.6 8 +20 +20 1015.8 1006.9
21 12.09 В 3 н/о н/о +16.8 -3.9 24 +17 +17 1016.5 1007.6
22 12.09 СВ 4 н/о н/о +15.8 -4.2 25 +15 +15 1017.0 1008.1
00 13.09 СВ 4 н/о н/о +25.5 +9.7 37 +26 +26 жарко 1018.1 1009.2
01 13.09 СВ 3 н/о н/о +29.0 +0.7 16 +27 +27 жарко 1018.1 1009.2 +15.8
03 13.09 СВ 8 н/о н/о +32.1 -8.0 7 +28 +28 жарко 1016.9 1008.0
04 13.09 ЮВ 6 н/о н/о +33.0 -9.3 6 +29 +29 жарко 1016.0 1007.1
06 13.09 В 4 н/о н/о +35.9 -12.4 4 +31 +31 жарко 1014.0 1005.1
07 13.09 В 4 н/о н/о +34.6 -16.7 3 +30 +30 жарко 1013.5 1004.6
09 13.09 В 5 н/о н/о +33.7 -17.3 3 +29 +29 жарко 1013.4 1004.5
10 13.09 В 3 н/о н/о +27.7 -13.1 6 +24 +24 комфорт 1013.8 1004.9
12 13.09 ЮВ 4 н/о н/о +25.9 -12.5 7 +23 +23 комфорт 1015.2 1006.3
13 13.09 ЮВ 4 н/о н/о +25.6 -12.7 7 +22 +22 комфорт 1015.6 1006.7 +36.0
15 13.09 ЮВ 4 н/о н/о +23.9 -12.3 8 +21 +21 комфорт 1015.3 1006.4
16 13.09 ЮВ 4 н/о н/о +23.3 -12.8 8 +20 +20 1015.1 1006.2
18 13.09 ЮВ 2 н/о н/о +16.0 -9.8 16 +16 +16 1015.1 1006.2
19 13.09 Ю 3 н/о н/о +14.9 -8.5 19 +15 +15 1014.6 1005.7
21 13.09 В 3 н/о н/о +14.1 -9.1 19 +14 +14 1015.7 1006.8
22 13.09 СВ 4 н/о н/о +14.2 -3.1 30 +13 +13 1016.3 1007.4
00 14.09 СВ 3 н/о н/о +25.2 +7.3 32 +25 +25 комфорт 1017.7 1008.8
01 14.09 СВ 5 н/о н/о +30.7 -3.1 11 +27 +27 жарко 1017.7 1008.8 +13.8
03 14.09 В 5 н/о н/о +33.4 -3.7 9 +29 +29 жарко 1016.3 1007.4
04 14.09 В 5 н/о н/о +33.4 -3.7 9 +29 +29 жарко 1015.4 1006.5
06 14.09 ЮВ 5 н/о н/о +35.6 -5.5 7 +31 +31 жарко 1013.0 1004.1
07 14.09 С 3 н/о н/о +35.3 -7.7 6 +31 +31 жарко 1012.6 1003.7
09 14.09 В 3 н/о н/о +34.4 -6.3 7 +30 +30 жарко 1012.5 1003.6
10 14.09 СЗ 2 н/о н/о +29.7 -1.6 13 +27 +27 жарко 1013.2 1004.3
12 14.09 ЮЗ 2 н/о н/о +26.0 +0.6 19 +24 +24 комфорт 1014.2 1005.3
13 14.09 ЮЗ 6 н/о н/о +24.8 -1.1 18 +23 +23 комфорт 1014.6 1005.7 +36.5
15 14.09 ЮЗ 3 н/о н/о +21.2 -0.1 24 +21 +21 комфорт 1014.6 1005.7
16 14.09 З 2 н/о н/о +17.1 -1.5 28 +17 +17 1014.5 1005.6
18 14.09 СЗ 3 н/о н/о +18.2 +4.7 41 +18 +18 1013.9 1005.0
19 14.09 З 3 н/о н/о +18.7 +5.5 42 +19 +19 1013.8 1004.9
21 14.09 ЮЗ 2 н/о н/о +18.0 +3.9 39 +19 +19 1014.5 1005.6
22 14.09 ЮЗ 3 н/о н/о +17.4 +3.7 40 +18 +18 1014.9 1006.0
00 15.09 З 3 н/о н/о +26.9 -2.8 14 +24 +24 комфорт 1016.1 1007.2
01 15.09 З 3 н/о н/о +30.5 -3.3 11 +27 +27 жарко 1015.9 1007.0 +14.7
03 15.09 В 7 н/о н/о +34.4 -3.0 9 +30 +30 жарко 1014.1 1005.2
04 15.09 В 5 н/о н/о +34.6 -4.4 8 +30 +30 жарко 1013.4 1004.5
06 15.09 В 5 н/о н/о +35.6 -3.7 8 +32 +32 жарко 1011.8 1002.9
07 15.09 В 5 н/о н/о +35.8 -3.5 8 +32 +32 жарко 1011.5 1002.6
09 15.09 СВ 3 н/о н/о +34.7 -4.4 8 +31 +31 жарко 1011.3 1002.4
10 15.09 Ю 2 н/о н/о +28.2 -2.8 13 +25 +25 комфорт 1011.9 1003.0
12 15.09 СЗ 1 н/о н/о +22.2 +1.3 25 +22 +22 комфорт 1012.8 1003.9
13 15.09 ЮЗ 5 н/о н/о +25.4 +3.4 24 +24 +24 комфорт 1012.9 1004.0 +36.8
15 15.09 ЮЗ 3 н/о н/о +22.9 +2.4 26 +22 +22 комфорт 1013.1 1004.2
16 15.09 СЗ 3 н/о н/о +18.9 +2.3 33 +19 +19 1013.2 1004.3
18 15.09 З 3 н/о н/о +18.9 +6.4 44 +20 +20 1013.1 1004.2
19 15.09 С 3 н/о н/о +17.5 +6.1 47 +18 +18 1013.3 1004.4
21 15.09 С 3 н/о н/о +13.9 +6.3 60 +13 +13 1014.2 1005.3
22 15.09 С 3 н/о н/о +16.6 +10.5 67 +16 +16 1014.5 1005.6
00 16.09 С 3 н/о н/о +27.0 +11.1 37 +28 +28 жарко 1015.4 1006.5
01 16.09 З 3 н/о н/о +30.6 +5.8 21 +29 +29 жарко 1015.3 1006.4 +13.7
03 16.09 СЗ 3 н/о н/о +33.4 +0.1 12 +30 +30 жарко 1013.7 1004.8
04 16.09 Ю 2 н/о н/о +35.2 +0.3 11 +32 +32 жарко 1012.6 1003.7
06 16.09 З 3 н/о н/о +35.8 -2.0 9 +32 +32 жарко 1010.9 1002.0
07 16.09 СВ 3 н/о н/о +35.9 -1.9 9 +32 +32 жарко 1010.4 1001.5
09 16.09 З 4 н/о н/о +34.1 -0.5 11 +31 +31 жарко 1010.7 1001.8
10 16.09 СЗ 2 н/о н/о +30.6 +0.1 14 +28 +28 жарко 1011.1 1002.2
12 16.09 З 4 н/о н/о +26.9 +4.0 23 +26 +26 жарко 1013.1 1004.2
13 16.09 ЮЗ 5 н/о н/о +26.6 +3.2 22 +25 +25 комфорт 1013.2 1004.3 +37.6
15 16.09 ЮЗ 5 н/о н/о +24.2 +3.5 26 +24 +24 комфорт 1012.9 1004.0
16 16.09 ЮЗ 3 н/о н/о +22.7 +2.8 27 +22 +22 комфорт 1012.5 1003.6
18 16.09 СЗ 3 н/о н/о +20.4 +5.6 38 +21 +21 комфорт 1012.2 1003.3
19 16.09 СВ 3 н/о н/о +17.1 +5.1 45 +17 +17 1012.7 1003.8
21 16.09 СВ 3 н/о н/о +17.5 +15.7 89 +17 +17 1013.9 1005.0
22 16.09 СВ 3 н/о 10/10 50 м
[]
+18.2 +17.0 93 +19 +19 1014.6 1005.7
00 17.09 СЗ 5 н/о н/о +26.1 +17.7 60 +30 +30 душно 1016.1 1007.2
01 17.09 СЗ 3 н/о н/о +29.5 +6.8 24 +28 +28 жарко 1016.1 1007.2 +15.1
03 17.09 З 5 н/о н/о +33.7 +1.5 13 +31 +31 жарко 1014.7 1005.8
06 17.09 В 3 н/о н/о +36.2 -1.7 9 +32 +32 жарко 1011.7 1002.8
07 17.09 С 2 н/о н/о +37.0 -1.1 9 +33 +33 жарко 1011.2 1002.3
09 17.09 ЮЗ 3 н/о н/о +35.7 -0.6 10 +32 +32 жарко 1011.4 1002.5
10 17.09 СЗ 4 н/о н/о +29.6 +8.1 26 +29 +29 жарко 1012.5 1003.6
12 17.09 СЗ 3 н/о н/о +25.7 +11.5 41 +27 +27 жарко 1014.2 1005.3

 

Местоположение метеостанции База ВВС Curtin (Западная Австралия, Австралия): широта -17.58 долгота 123.82 высота над уровнем моря 78 м.

В архиве по умолчанию представлена погода на Базе ВВС Curtin за последнюю неделю. Архивные данные за месяц целиком и за предыдущие месяцы, начиная с января 2011 года, Вы можете получить, выбрав интересующий диапазон дат из раскрывающегося списка и нажав кнопку "Ввод!".


*Определитесь, кто Вы:
робот инопланетянин человек

Внимание! Время в таблицах - всемирное. Для получения местного времени необходимо прибавить поправку, которая равна 8 ч.

Смотрите также архив погоды в соседних городах и на ближайших метеорологических станциях:

Погода в Дерби (Северная территория, Австралия) (30 км)
Погода в Робак Запад (Западная Австралия, Австралия) (163 км)
Погода в Бруме (Западная Австралия, Австралия) (173 км)
Погода в Фицрой-Кроссинге (Западная Австралия, Австралия) (196 км)
Погода на Острове Адель (Западная Австралия, Австралия) (241 км)
Погода на Острове Брауз (Западная Австралия, Австралия) (387 км)
Погода в Мандоре (Западная Австралия, Австралия) (394 км)
Погода в Холс Крик (Западная Австралия, Австралия) (413 км)
Погода в Калумбуру (Западная Австралия, Австралия) (474 км)
Погода в Трускотте (Западная Австралия, Австралия) (476 км)

Пояснения к столбцам:

Ветер - указаны скорость ветра в м/с - средняя за 10 мин, порывы в срок и между сроками (в фигурных скобках) и направление, откуда дует ветер: С - северный, СВ - северо-восточный, В - восточный, ЮВ - юго-восточный, Ю - южный, ЮЗ - юго-западный, З - западный, СЗ - северо-западный.
Видимость - горизонтальная дальность видимости в метрах или километрах. При видимости от 1 до 10 км при отсутствии осадков обычно наблюдается дымка, при ухудшении видимости до 1 км и менее - туман. В сухую погоду видимость может ухудшаться дымом, пылью или мглою.
Явления - указаны атмосферные явления, наблюдавшиеся в срок или в последний час перед сроком; фигурными скобками обозначены явления, наблюдавшиеся между сроками (за 1-3 часа до срока); квадратными скобками обозначены град или гололедные отложения с указанием их диаметра в мм.
Облачность - указаны через наклонную черту общая и нижняя облачность в баллах и высота нижней границы облаков в метрах; квадратными скобками обозначены формы облаков: Ci - перистые, Cs - перисто-слоистые, Cc - перисто-кучевые, Ac - высококучевые, As - высокослоистые, Sc - слоисто-кучевые, Ns - слоисто-дождевые, Cu - кучевые, Cb - кучево-дождевые. Подробнее классификацию облаков см. в Атласе облаков (PDF).
T - Температура воздуха - температура, измеренная на высоте 2 м над землей.
Td - Температура точки росы - температура, при понижении до которой содержащийся в воздухе водяной пар достигнет насыщения.
f - Относительная влажность воздуха - влажноcть воздуха, измеренная на высоте 2 м над землей.
Te - Эффективная температура - температура, которую ощущает одетый по сезону человек в тени. Характеристика душности погоды. При расчете учитывается влияние влажности воздуха и скорости ветра на теплоощущения человека.
Tes - Эффективная температура на солнце - температура, которую ощущает человек, с поправкой на солнечный нагрев. Характеристика знойности погоды. Зависит от высоты солнца над горизонтом, облачности и скорости ветра. Ночью, в пасмурную погоду, а также при ветре 12 м/с и более поправка равна нулю.
P - Атмосферное давление - приведенное к уровню моря атмосферное давление.
Po - Атмосферное давление - измеренное на уровне метеостанции атмосферное давление.
Tmin - Минимальная температура - минимум температуры воздуха на высоте 2 м над землей.
Tmax - Максимальная температура - максимум температуры воздуха на высоте 2 м над землей.
R - Количество осадков - Количество выпавших осадков за период времени, мм. При наведении курсора мыши на число - период времени, за который выпало указанное количество осадков.
R24 - Количество осадков - Количество выпавших осадков за 24 часа, мм.
S - Снежный покров - Высота снежного покрова, см. При наведении курсора мыши на число - состояние снежного покрова и степень покрытия местности в баллах.